Vertical_Velocity
-9 -4 7 1 -4 -6 -6 -2 0 -2 -10 -4 -0 -1 -10 -3 3 7 7 10 11 8 5 2 1 -0 1 3 4 5 3 1 -1 -1 -1 0 1 1 0 -0 -1 -0 -0 0 1 1 2 1 1 1 1 1 1 1 1 1 2 2 2 1 1 1 1 1 1 1 0 -0 -0 -0 1 1 1 1 0 -0 -1 -1 -1 -0 1 1 1 1 0 -0
-6 -6 2 1 -1 -4 -9 -3 3 2 -10 -6 -0 1 -6 -5 -2 2 6 9 10 9 7 3 -0 -1 1 2 4 6 6 3 1 -0 -1 -1 0 1 1 -0 -0 -0 -0 -0 0 1 1 1 1 1 1 1 1 1 1 2 2 2 2 1 1 1 0 1 1 0 0 0 0 0 1 1 1 0 0 -0 -0 -0 -0 0 1 1 1 0 -0 -0
-1 -5 -5 2 3 -2 -12 -4 3 4 -6 -6 -1 2 1 -4 -4 -1 5 5 6 9 12 6 1 -2 -1 1 4 7 7 6 4 2 -1 -1 -1 0 1 0 0 0 0 -0 -0 0 1 1 1 1 1 1 1 1 2 2 3 3 2 1 1 1 0 0 0 0 0 0 0 0 1 1 1 0 0 -0 -0 -0 1 1 1 1 1 0 0 0
2 -5 -8 4 4 -2 -9 -1 1 0 -3 -3 -1 1 3 -0 -3 -2 3 2 3 6 11 9 4 -1 -3 -0 3 6 6 6 6 5 1 -1 -2 -1 -0 0 1 1 1 0 -0 -0 0 0 1 1 1 1 1 2 2 3 3 3 2 1 1 1 1 0 0 -0 -0 0 0 0 1 1 1 1 0 -0 -0 0 1 1 1 1 1 0 0 1
4 -3 -7 4 2 -4 -5 3 2 -2 -2 -0 -1 -1 1 1 -0 -0 2 2 2 3 7 10 7 2 -3 -1 2 4 4 6 6 6 3 0 -1 -2 -1 -0 0 1 1 1 0 -0 -0 0 1 1 1 1 1 2 3 4 4 3 2 1 1 1 1 1 0 0 -0 -0 0 0 0 1 1 1 1 0 0 1 1 1 1 1 1 0 0 1
5 1 -2 2 -1 -4 -1 2 1 -0 -1 -2 -1 -0 -0 -0 0 1 1 1 2 3 4 7 6 3 -0 -0 0 1 2 4 5 6 5 2 -0 -2 -2 -1 -1 0 1 1 1 1 -0 0 1 1 1 1 1 2 3 4 4 3 2 1 1 1 2 1 1 0 0 -0 0 0 0 1 1 1 1 1 1 1 1 1 2 2 1 1 1 1
2 2 3 -1 -2 -1 2 -1 1 2 1 -4 -3 -0 -1 -1 -0 1 -0 1 2 3 3 4 4 3 1 -0 -0 0 1 2 4 5 6 4 2 -0 -2 -2 -2 -1 1 1 1 1 1 1 1 1 1 1 1 2 4 4 4 4 2 2 2 2 2 2 1 1 1 0 0 0 0 1 1 2 1 1 1 1 1 2 2 2 2 1 1 1
-1 1 6 0 -2 -2 0 -1 1 2 1 -2 -2 -1 -2 -1 -1 -0 -0 2 2 3 3 3 3 2 1 -0 0 1 0 1 3 4 5 5 4 2 -0 -1 -2 -1 -0 1 2 2 2 2 2 2 2 1 2 2 4 4 4 4 3 2 2 2 2 2 2 2 1 1 0 0 0 1 1 1 1 1 1 1 2 2 2 2 2 2 1 1
-1 -1 3 3 0 -2 -3 -2 1 2 1 -1 -1 -0 -1 -1 -1 -0 -0 -1 0 1 3 2 2 2 1 1 1 0 -0 2 3 3 4 4 4 3 2 -0 -1 -1 -1 0 1 2 3 3 3 2 2 2 2 3 3 4 4 4 3 2 2 3 3 3 3 2 2 1 1 0 1 1 1 1 1 1 1 2 2 2 2 2 1 2 2 2
-0 -0 0 1 2 1 -2 -3 -1 2 1 -0 -0 1 2 1 1 -0 -2 -3 -2 -0 1 2 3 4 3 2 1 -0 -0 1 2 3 3 3 3 3 2 1 -0 -1 -0 0 1 2 3 3 4 4 3 3 3 3 4 4 4 4 4 3 3 3 3 3 3 3 2 2 1 1 1 1 1 1 1 1 2 2 2 2 2 2 1 2 2 2
-0 1 0 -0 0 1 0 -1 -0 1 1 -0 -0 1 4 4 2 -0 -4 -4 -2 -1 -1 0 3 5 4 3 1 0 -0 0 1 2 3 2 2 3 2 2 1 1 1 0 1 2 3 4 4 4 4 4 3 3 4 4 4 4 4 3 3 3 3 4 3 3 3 2 2 1 1 1 1 1 1 1 2 2 2 2 2 2 2 2 3 3
-0 1 0 -0 0 1 1 1 1 1 1 1 0 1 2 4 3 1 -2 -1 -0 -0 -2 -3 -0 2 5 5 4 2 1 -0 0 2 3 1 2 2 2 1 1 1 1 1 1 1 2 3 4 4 4 4 4 4 4 4 4 4 4 4 4 3 4 3 3 3 3 3 2 2 1 1 1 1 1 2 2 2 2 2 2 2 2 3 3 3
0 1 0 -0 1 2 3 2 2 1 2 2 2 2 2 1 1 1 1 1 2 1 -2 -4 -3 -1 3 5 5 4 2 0 0 1 2 1 1 1 1 0 0 1 1 0 0 1 2 3 4 4 5 4 4 4 4 4 4 4 4 4 4 4 4 3 3 3 3 3 2 2 1 1 1 1 2 2 2 2 2 2 2 2 3 3 4 4
0 0 -1 -0 1 3 4 4 3 3 3 3 3 3 2 1 1 1 2 2 2 1 -1 -3 -3 -1 1 3 4 4 4 2 0 -0 0 0 1 1 -0 -1 -1 -0 1 0 0 1 3 3 3 3 5 5 4 4 4 4 4 4 4 4 4 4 4 3 3 3 3 3 2 2 2 1 1 2 2 2 3 3 2 2 2 3 3 3 4 3
-0 -0 -1 -0 2 3 4 3 2 2 3 3 2 1 1 1 1 1 0 0 1 1 -0 -1 -1 -0 1 2 3 4 4 2 1 -0 -1 -1 -1 -0 -0 -1 -2 -1 1 1 1 1 3 3 2 3 6 6 5 5 6 5 5 5 5 5 5 4 4 3 3 3 3 2 2 2 2 2 2 2 2 2 3 3 3 3 3 3 3 3 3 3
-1 -1 -1 -0 1 3 3 2 1 1 2 3 2 2 1 -0 -1 -1 -1 -1 -0 1 1 0 -0 -0 1 2 2 2 2 1 0 -1 -1 -2 -2 -1 0 -0 -1 -1 0 1 2 3 3 3 3 5 7 6 7 7 7 6 6 6 6 6 5 4 3 3 3 3 3 3 2 2 2 2 2 2 2 2 3 3 3 3 3 3 3 3 2 2
-0 -0 -1 -1 0 2 2 1 -0 -0 1 2 2 1 0 -1 -1 -1 -1 -0 -0 0 0 0 0 0 1 2 2 1 0 -0 -1 -2 -0 -1 -1 -1 -0 1 1 0 1 2 3 3 4 3 4 6 7 7 8 8 7 6 7 7 6 5 4 4 4 4 4 3 3 3 3 3 3 3 3 3 2 2 3 3 3 3 3 3 3 2 2 2
3 3 2 1 2 2 2 1 -0 -0 1 1 0 -1 -2 -2 -1 -0 -0 -0 -0 -1 -1 -1 -0 1 2 4 2 -0 -2 -1 -1 -1 0 1 -0 -1 -1 1 2 2 2 2 3 3 4 4 4 6 6 7 8 8 7 7 6 6 5 5 4 4 4 4 3 3 2 2 2 2 3 3 3 3 2 2 2 3 3 3 3 3 3 2 2 2
4 5 6 5 5 4 4 3 3 2 2 1 -0 -1 -2 -1 -0 0 -0 -0 -1 -2 -3 -2 -0 1 4 4 1 -2 -3 -0 1 1 2 2 0 -1 -1 2 3 3 3 3 3 3 3 4 4 5 6 7 8 7 7 7 6 5 4 4 4 3 3 3 3 2 1 2 2 2 2 2 2 2 2 2 2 2 3 3 3 3 2 2 2 2
0 4 6 7 6 5 5 6 6 6 4 2 1 1 1 1 0 -0 -0 -1 -2 -3 -3 -1 0 2 3 2 1 -1 -2 1 3 4 3 2 1 -0 -0 2 3 2 3 2 2 2 2 3 4 5 6 7 7 7 7 5 4 3 3 2 2 2 2 2 2 1 1 1 1 1 2 2 2 1 1 1 1 2 2 2 2 2 2 2 2 3
-6 -1 4 5 5 5 6 7 7 6 5 3 2 2 3 2 1 -0 -0 -1 -2 -3 -3 -0 1 2 2 2 2 1 -0 2 4 4 2 2 2 1 0 1 1 2 2 1 1 1 1 2 3 4 5 7 7 6 5 4 2 2 1 1 1 1 1 1 1 0 -0 -0 0 0 1 1 1 1 1 1 1 1 1 1 1 1 2 2 2 3
-11 -7 -1 2 3 3 4 5 5 5 4 4 4 4 4 3 2 1 -0 -1 -1 -2 -1 0 1 1 1 2 2 1 -0 1 3 3 2 2 2 1 -1 -1 -0 1 2 1 0 -0 0 1 2 4 5 6 6 5 4 3 2 1 1 0 0 0 1 1 0 -0 -0 -1 -1 -0 0 1 1 2 1 1 1 1 1 1 1 1 2 2 3 3
-10 -8 -5 -2 -0 1 2 3 3 2 2 3 3 4 4 4 3 2 0 -0 -0 -0 0 -0 -0 -0 1 1 1 0 -1 0 1 1 2 2 2 0 -2 -2 -0 1 2 1 -0 -1 -0 1 2 4 5 6 6 5 4 3 2 2 1 1 1 1 1 1 1 -0 -0 -0 -0 -0 0 1 2 2 2 2 2 1 1 2 2 2 2 2 2 2
-6 -6 -5 -3 -2 -0 0 1 1 1 1 1 2 3 4 4 3 2 1 1 1 0 -1 -1 -1 -1 -0 0 0 -0 -0 -0 0 1 2 2 1 0 -2 -1 0 2 2 1 -0 -0 0 2 2 4 5 6 5 5 4 3 2 2 1 1 1 1 1 1 1 1 0 0 -0 0 1 1 2 2 2 2 2 2 2 3 3 3 3 3 2 2
-2 -3 -3 -2 -1 -0 0 1 1 1 1 1 1 2 2 2 2 2 2 2 1 -1 -3 -3 -1 -0 -0 -0 0 1 0 -0 1 2 2 2 2 1 -0 0 1 2 2 1 -0 -0 1 1 2 3 5 5 5 4 4 3 2 2 2 1 1 1 1 1 1 1 1 1 1 1 1 2 2 2 3 2 2 3 3 4 4 4 4 3 2 1
-0 -0 -1 -1 -1 -0 1 1 1 1 1 1 1 1 1 1 2 2 4 2 -0 -2 -3 -1 -0 0 -0 0 1 1 0 -0 1 2 4 3 2 2 1 1 2 2 2 1 0 0 1 1 2 3 5 5 4 4 3 3 2 2 1 1 1 1 1 1 1 1 1 1 1 1 1 2 2 2 3 3 3 3 4 4 4 4 3 2 1 0
1 1 0 -0 -0 0 1 1 2 2 1 1 1 1 1 1 2 3 4 1 -1 -2 -1 1 1 0 -1 -0 0 0 -0 1 2 3 4 4 4 3 3 1 1 2 2 1 -0 -1 -0 0 1 2 4 4 4 3 3 2 2 1 1 1 1 1 1 1 1 2 1 2 2 2 2 2 2 2 3 3 3 3 4 4 3 3 2 1 -0 -1
1 1 1 0 0 0 0 1 2 2 2 1 0 -0 -0 1 2 3 1 -1 -2 -1 1 1 1 -1 -2 -2 -1 -1 1 3 4 4 4 4 4 4 3 1 0 1 2 0 -1 -1 0 1 2 2 4 3 3 3 2 2 1 1 1 1 1 1 1 1 2 2 2 2 2 2 2 2 2 2 2 2 3 3 3 3 2 2 0 -1 -1 -1
1 1 1 1 1 0 0 1 1 2 2 2 1 0 -0 1 3 3 0 -2 -1 -0 0 0 -0 -1 -2 -2 -2 -1 2 3 3 3 2 4 4 3 1 -0 -0 -0 1 1 -0 0 1 1 2 2 3 2 3 3 2 1 1 1 1 1 1 1 1 2 2 2 2 2 2 2 2 2 2 2 2 2 2 2 2 2 1 0 -1 -1 -2 -1
1 1 1 1 1 1 0 1 1 2 2 2 2 1 0 2 4 5 3 1 0 0 -0 -1 -1 -1 -2 -2 -2 -0 1 2 1 0 2 3 3 1 0 -0 -1 -0 1 1 1 1 1 1 2 2 2 1 1 2 1 1 1 1 1 1 1 1 2 2 2 2 2 2 2 2 2 2 2 2 2 2 2 2 2 1 1 -0 -1 -2 -1 -1
-0 0 1 1 1 1 1 1 1 1 1 1 1 0 -0 1 3 5 6 4 3 1 0 -0 -1 -2 -2 -1 -1 -0 -0 -1 -2 -1 2 3 2 0 -0 -0 -1 -1 0 1 2 1 0 1 1 2 2 1 1 1 1 1 1 1 2 2 2 2 2 2 2 2 2 2 2 2 1 1 1 1 2 2 2 2 2 2 1 -0 -1 -1 -1 -0
-0 -0 0 0 0 0 0 0 0 0 0 1 0 -0 -1 -1 0 3 6 6 5 4 2 0 -1 -2 -3 -1 -0 -0 -1 -3 -4 -2 1 2 1 -1 -0 -0 -0 -1 -0 1 2 2 2 2 2 2 3 2 1 0 0 1 1 2 2 3 3 2 2 2 2 2 1 1 1 1 1 1 1 1 2 2 2 2 2 2 1 0 -0 -0 -0 -0
-0 -0 -0 -0 -0 0 0 -0 -0 -0 -0 0 0 -0 -1 -1 -1 0 3 6 7 6 5 2 -0 -2 -3 -2 -1 -0 -1 -3 -4 -3 -0 1 1 -1 -1 -0 -0 -0 -0 1 2 2 3 3 3 3 4 2 1 0 -0 1 1 2 2 3 3 3 2 2 2 2 1 1 1 1 1 1 1 1 1 2 2 2 2 2 1 0 -0 -0 -0 -0
1 0 0 -0 -0 -0 -0 -0 -0 -0 -0 0 0 0 -0 -1 -1 -1 0 3 6 7 6 4 1 -1 -3 -2 -1 -1 -1 -3 -4 -4 -0 2 1 -1 -2 -1 -0 0 0 1 2 2 3 3 3 3 3 3 2 1 0 0 1 2 3 4 4 3 2 2 2 2 1 1 1 1 1 1 2 2 1 2 2 2 2 2 1 0 -0 -0 -0 -0
2 2 1 0 -0 -1 -1 -1 -0 -0 -0 0 0 0 -0 -0 -0 -0 -0 1 4 6 6 5 2 0 -1 -1 -1 -1 -1 -4 -5 -4 -0 2 2 0 -1 -1 -1 -0 0 0 1 2 3 2 2 2 2 2 2 1 0 -0 0 1 2 4 4 3 2 2 2 2 1 1 1 1 1 2 2 2 1 1 2 1 1 1 0 -0 -1 -1 -1 -1
3 3 2 1 -0 -1 -1 -1 -1 -0 -0 0 0 0 0 0 0 0 0 1 2 4 5 5 4 2 0 0 0 -0 -1 -4 -4 -3 -0 2 2 1 -0 -1 -1 -1 -0 -0 0 1 2 2 1 1 2 3 2 1 -0 -1 -0 1 2 3 3 3 2 2 1 1 1 1 1 2 2 2 2 1 1 1 1 1 0 -0 -0 -1 -1 -1 -1 -1
4 4 3 1 -0 -1 -2 -2 -1 -1 -1 -1 -0 0 0 0 0 0 1 1 1 2 4 4 4 3 2 1 0 -0 -1 -2 -2 -2 -1 0 1 1 1 -1 -2 -1 -0 -0 -0 -0 0 1 1 1 2 3 3 2 0 -1 -1 -0 0 1 2 2 1 1 1 1 1 1 1 2 2 1 1 1 1 1 1 0 -0 -0 0 0 -0 -1 -1 -1
4 4 4 2 1 -0 -1 -1 -2 -2 -2 -1 -1 -0 -0 -0 -0 -0 0 0 1 2 3 4 4 4 3 2 1 -0 -1 -1 -1 -1 -1 -0 0 1 1 -1 -1 -2 -1 -1 -1 -1 -1 -0 1 1 2 2 2 2 1 -0 -0 -1 -1 -0 0 1 0 0 0 1 1 1 1 1 1 1 1 1 1 1 1 0 0 0 1 1 0 -0 -1 -1
3 4 4 3 2 1 -0 -0 -1 -2 -2 -2 -1 -1 -1 -1 -1 -1 -1 -0 0 1 2 3 4 4 4 3 2 1 0 -0 -1 -1 -1 -1 0 1 1 -0 -1 -2 -1 -1 -1 -1 -1 -0 0 1 1 1 2 1 1 1 0 -0 -1 -1 -1 -0 0 1 1 1 1 1 1 1 0 0 0 1 0 0 0 1 0 1 1 0 -0 -1 -2 -2
2 3 4 3 2 1 1 1 0 -0 -0 -1 -1 -1 -1 -2 -2 -2 -2 -1 -1 0 1 3 4 4 5 4 3 2 1 1 -0 -1 -1 -1 -0 0 0 0 -1 -1 -2 -1 -1 -1 -0 -0 -0 0 1 1 1 1 1 1 1 -0 -1 -1 -1 -1 -0 0 0 0 0 1 1 0 -0 -0 -0 0 0 0 0 0 -0 -0 -0 -1 -1 -2 -2 -2
2 2 3 2 2 2 1 1 1 1 1 1 -0 -1 -2 -2 -3 -3 -4 -3 -2 -1 0 1 3 4 5 5 5 4 3 2 1 0 -0 -0 -0 -0 0 0 -0 -1 -2 -2 -1 -0 0 0 0 0 1 1 1 1 1 1 1 0 -0 -1 -1 -2 -1 -1 -0 0 0 0 0 0 0 -0 -0 -0 -0 -0 -0 -1 -1 -1 -1 -2 -2 -2 -2 -2
2 2 2 2 2 2 1 1 2 2 2 2 1 -0 -1 -2 -3 -4 -4 -4 -3 -3 -2 -0 1 2 3 4 5 5 4 3 2 1 0 0 0 0 0 0 -0 -1 -2 -2 -1 -1 0 1 1 1 1 1 1 1 1 1 0 0 -0 -0 -1 -1 -2 -2 -1 1 1 1 0 0 0 -0 -0 -0 -0 -1 -1 -1 -1 -1 -1 -1 -1 -1 -1 -1
1 2 2 2 2 1 1 2 2 2 2 2 1 0 -1 -2 -2 -3 -4 -4 -4 -4 -3 -2 -1 -0 1 3 4 5 4 2 1 1 0 1 1 0 0 0 -0 -1 -1 -1 -1 -1 -1 0 1 1 1 1 1 1 1 1 1 0 0 0 0 -0 -1 -2 -1 0 1 0 0 -0 -0 -0 -1 -1 -2 -2 -2 -1 -0 -0 -0 -0 -0 -1 -1 -1
1 2 2 2 1 1 1 1 1 1 2 2 1 0 -1 -2 -2 -2 -3 -4 -4 -4 -4 -3 -3 -1 0 2 4 4 4 2 1 0 -0 -0 -0 0 -0 -0 -0 -1 -0 -0 -0 -1 -1 -1 -0 0 1 1 1 1 2 2 1 1 0 1 1 1 -0 -0 -0 -0 -1 -0 -0 -0 -1 -1 -2 -2 -3 -2 -1 -1 -0 -0 0 -0 -0 -0 -1 -1
1 2 2 2 2 2 2 1 0 1 1 2 2 1 -1 -1 -2 -2 -2 -3 -4 -4 -4 -4 -3 -2 -1 0 2 3 3 3 2 1 -0 -1 -2 -1 -1 -0 -0 -1 -0 -0 -0 -0 -0 -0 -1 -1 -1 -0 0 1 2 2 2 1 1 1 1 1 1 0 -0 -1 -1 -1 -0 -1 -1 -2 -3 -3 -3 -2 -1 -1 -0 -0 0 0 -0 -0 -0 -0
2 2 2 2 2 2 2 1 1 1 1 1 1 1 -0 -1 -1 -1 -2 -3 -3 -4 -5 -4 -3 -2 -2 -1 -0 1 1 2 3 3 2 -0 -2 -2 -2 -1 -1 -1 -0 -0 -0 -0 1 0 -0 -1 -1 -1 -0 1 3 3 3 2 1 1 1 1 1 0 -0 -1 -0 -0 -1 -1 -2 -3 -4 -4 -4 -3 -2 -1 -1 -0 0 1 0 0 0 0
2 2 2 2 2 2 2 2 2 1 1 1 1 1 0 -0 -0 -1 -2 -2 -3 -4 -5 -4 -3 -2 -1 -1 -1 -1 -0 0 1 2 3 2 1 -1 -2 -2 -1 -1 -0 -0 -0 -0 -0 -0 0 0 0 0 1 1 2 4 4 3 1 0 -0 -0 0 -0 -0 -0 -0 -0 -1 -1 -2 -3 -4 -4 -4 -3 -3 -2 -1 -0 1 1 2 1 1 1
1 2 2 2 2 2 2 2 2 2 2 1 1 1 0 1 1 0 -1 -2 -3 -3 -4 -4 -3 -2 -2 -1 -1 -1 -1 -1 -1 0 2 3 2 1 0 -1 -1 -1 -0 -0 0 0 -0 -0 -0 0 1 1 2 2 3 3 4 3 2 0 -1 -1 -0 -0 -0 -1 -1 -1 -1 -2 -2 -3 -4 -4 -4 -3 -3 -2 -1 -0 1 1 2 2 2 1
1 1 1 1 2 2 2 2 2 2 2 2 1 1 0 1 1 2 1 -1 -2 -2 -3 -3 -3 -3 -2 -2 -2 -2 -1 -2 -2 -1 -0 1 2 2 1 0 -0 -0 -0 -0 0 0 -0 -0 -0 0 1 2 3 3 3 3 3 2 1 -0 -1 -1 -0 -0 -1 -1 -1 -2 -2 -2 -2 -3 -3 -3 -2 -2 -2 -2 -0 0 1 1 2 2 1 1
-0 -0 0 1 1 1 1 2 2 2 2 2 2 1 0 1 1 2 2 1 0 -1 -2 -2 -2 -3 -3 -3 -2 -2 -2 -2 -2 -2 -1 -0 0 1 1 -0 -0 -0 -1 -1 -0 0 0 -0 -1 -0 2 4 4 4 4 2 1 0 -0 -1 -1 -1 -0 -0 -1 -1 -2 -2 -2 -2 -2 -2 -2 -2 -1 -1 -1 -1 -0 1 1 1 2 1 0 -0
-1 -1 -0 0 0 1 1 1 2 2 2 2 2 1 1 1 1 1 2 2 1 1 -0 -1 -1 -2 -2 -3 -3 -2 -2 -2 -2 -2 -2 -1 -0 0 0 -0 -0 -0 -1 -2 -1 -1 -0 -0 -0 0 2 4 5 5 4 1 -0 -1 -1 -1 -1 -0 -0 -0 -1 -1 -2 -2 -2 -2 -2 -2 -2 -2 -1 -1 -1 -1 -0 1 1 1 1 0 -1 -2
Height
5490 5487 5484 5483 5483 5483 5481 5480 5480 5482 5484 5482 5480 5481 5484 5485 5485 5485 5485 5485 5484 5483 5481 5480 5481 5482 5483 5484 5485 5485 5486 5487 5488 5490 5492 5493 5495 5497 5498 5500 5501 5503 5505 5507 5508 5510 5511 5513 5514 5516 5517 5518 5520 5520 5522 5523 5524 5525 5526 5527 5528 5529 5530 5531 5532 5533 5534 5535 5536 5537 5539 5540 5540 5541 5542 5543 5544 5545 5546 5548 5549 5550 5551 5552 5553 5555
5480 5478 5475 5473 5473 5472 5472 5470 5470 5471 5473 5473 5471 5470 5472 5474 5474 5474 5474 5475 5476 5474 5472 5471 5471 5473 5474 5475 5476 5477 5478 5479 5479 5480 5482 5484 5486 5488 5490 5491 5493 5495 5497 5498 5500 5502 5504 5505 5507 5508 5510 5511 5512 5514 5515 5516 5517 5518 5519 5520 5521 5522 5523 5524 5525 5526 5528 5529 5530 5531 5532 5533 5534 5535 5536 5537 5538 5539 5540 5542 5543 5544 5545 5546 5548 5549
5471 5469 5467 5464 5463 5462 5463 5461 5460 5460 5462 5463 5462 5460 5461 5463 5463 5463 5463 5465 5466 5466 5464 5462 5462 5463 5465 5466 5467 5469 5470 5470 5470 5471 5473 5475 5477 5479 5481 5483 5485 5487 5489 5490 5492 5494 5496 5497 5499 5501 5502 5504 5505 5506 5508 5509 5510 5511 5512 5513 5514 5515 5516 5517 5518 5520 5521 5522 5523 5524 5525 5526 5527 5528 5529 5530 5531 5533 5535 5536 5537 5538 5540 5541 5542 5543
5463 5461 5459 5456 5454 5453 5454 5453 5451 5451 5452 5452 5452 5452 5452 5453 5453 5453 5453 5454 5456 5457 5456 5454 5454 5454 5456 5457 5458 5460 5461 5462 5462 5463 5464 5465 5467 5470 5472 5474 5476 5479 5480 5482 5484 5486 5488 5490 5491 5493 5495 5496 5498 5499 5501 5502 5503 5504 5505 5506 5507 5508 5509 5510 5511 5513 5514 5515 5516 5518 5519 5520 5521 5522 5523 5524 5525 5527 5528 5530 5531 5532 5534 5535 5536 5538
5455 5454 5451 5449 5446 5445 5445 5445 5444 5444 5443 5443 5443 5444 5444 5444 5444 5444 5444 5445 5446 5447 5447 5446 5446 5446 5447 5448 5450 5451 5453 5454 5454 5455 5455 5457 5459 5461 5463 5466 5468 5470 5472 5475 5476 5478 5480 5482 5484 5486 5488 5489 5491 5492 5494 5495 5496 5497 5498 5499 5500 5501 5502 5504 5505 5506 5507 5508 5510 5511 5512 5513 5514 5515 5516 5518 5519 5520 5522 5524 5525 5526 5528 5529 5530 5532
5448 5447 5445 5442 5440 5439 5439 5438 5438 5437 5436 5435 5435 5435 5436 5436 5436 5436 5437 5437 5438 5438 5439 5438 5438 5439 5439 5440 5441 5443 5444 5445 5446 5447 5448 5449 5450 5452 5455 5457 5460 5462 5465 5467 5469 5470 5472 5474 5476 5478 5480 5482 5484 5485 5486 5488 5489 5490 5491 5493 5494 5495 5496 5497 5498 5499 5500 5502 5503 5504 5505 5507 5508 5509 5510 5511 5513 5514 5516 5517 5519 5520 5522 5523 5525 5527
5441 5440 5439 5437 5435 5433 5433 5432 5432 5431 5430 5430 5429 5429 5429 5429 5429 5430 5430 5430 5430 5430 5431 5431 5431 5431 5431 5432 5433 5435 5436 5437 5438 5439 5440 5441 5443 5444 5446 5449 5452 5454 5457 5459 5461 5463 5465 5467 5469 5471 5472 5474 5476 5478 5480 5481 5482 5484 5485 5486 5487 5488 5489 5490 5491 5493 5494 5495 5496 5498 5499 5500 5501 5503 5504 5505 5507 5508 5510 5511 5513 5515 5516 5517 5519 5521
5435 5434 5434 5432 5430 5428 5427 5427 5427 5426 5425 5424 5424 5423 5423 5423 5423 5423 5423 5423 5423 5424 5424 5424 5424 5424 5425 5425 5426 5427 5429 5430 5431 5432 5433 5434 5436 5437 5439 5441 5444 5447 5450 5452 5454 5456 5458 5460 5462 5464 5465 5467 5469 5471 5472 5474 5475 5477 5478 5479 5480 5481 5482 5484 5485 5486 5487 5489 5490 5491 5492 5494 5495 5496 5498 5499 5500 5502 5504 5505 5507 5509 5510 5512 5513 5515
5430 5429 5428 5427 5425 5424 5422 5422 5421 5421 5420 5419 5419 5418 5418 5418 5417 5417 5417 5417 5417 5417 5418 5418 5418 5418 5419 5419 5420 5421 5422 5423 5424 5425 5426 5428 5429 5430 5432 5435 5437 5440 5442 5445 5447 5450 5451 5453 5455 5457 5459 5460 5462 5464 5465 5467 5469 5470 5471 5472 5474 5475 5476 5477 5479 5480 5481 5482 5484 5485 5486 5488 5489 5490 5492 5493 5495 5496 5498 5499 5501 5502 5504 5505 5507 5509
5425 5424 5423 5422 5421 5420 5418 5417 5416 5416 5415 5415 5414 5414 5413 5413 5412 5411 5411 5411 5411 5412 5412 5413 5413 5413 5413 5414 5414 5415 5415 5416 5418 5419 5420 5421 5422 5424 5426 5428 5430 5433 5435 5438 5440 5443 5445 5447 5449 5450 5452 5454 5455 5457 5459 5460 5462 5463 5465 5466 5467 5468 5470 5471 5472 5474 5475 5476 5477 5479 5480 5481 5483 5484 5486 5487 5489 5490 5492 5493 5495 5496 5498 5500 5501 5503
5420 5419 5418 5417 5416 5416 5415 5413 5412 5411 5411 5410 5410 5409 5409 5409 5407 5406 5406 5406 5406 5407 5407 5407 5408 5408 5409 5409 5409 5409 5410 5411 5412 5413 5414 5415 5416 5418 5420 5421 5424 5426 5429 5431 5434 5436 5438 5440 5442 5444 5445 5447 5449 5451 5452 5454 5455 5457 5458 5460 5461 5462 5464 5465 5466 5468 5469 5470 5472 5473 5474 5475 5477 5479 5480 5481 5483 5485 5486 5487 5489 5490 5492 5494 5495 5497
5416 5415 5414 5413 5412 5411 5410 5410 5408 5408 5407 5406 5405 5405 5404 5404 5403 5402 5401 5401 5401 5401 5401 5401 5402 5403 5404 5404 5404 5404 5405 5405 5406 5407 5408 5409 5410 5412 5413 5415 5417 5420 5422 5425 5427 5430 5432 5434 5436 5438 5439 5441 5443 5444 5446 5448 5450 5451 5452 5453 5455 5456 5458 5459 5460 5462 5464 5465 5466 5467 5469 5470 5471 5473 5475 5476 5477 5479 5480 5482 5483 5485 5486 5488 5490 5491
5412 5411 5410 5409 5408 5407 5406 5405 5404 5403 5403 5402 5401 5400 5399 5399 5399 5398 5397 5397 5397 5397 5396 5396 5397 5398 5398 5399 5399 5399 5400 5400 5400 5401 5403 5404 5405 5406 5408 5410 5411 5414 5416 5418 5421 5423 5425 5428 5429 5431 5433 5435 5436 5438 5440 5442 5443 5445 5446 5448 5449 5450 5452 5454 5455 5456 5458 5459 5460 5462 5463 5465 5466 5467 5469 5470 5472 5473 5475 5476 5477 5479 5481 5482 5484 5485
5408 5407 5405 5405 5404 5403 5402 5401 5400 5399 5398 5397 5396 5395 5395 5394 5394 5394 5393 5392 5392 5392 5392 5391 5392 5393 5393 5394 5394 5394 5395 5395 5395 5396 5398 5399 5400 5401 5402 5404 5406 5408 5410 5413 5415 5417 5419 5421 5423 5425 5427 5429 5430 5432 5434 5435 5437 5439 5441 5442 5444 5445 5446 5448 5449 5451 5452 5454 5455 5456 5458 5459 5460 5462 5463 5465 5466 5467 5469 5470 5472 5473 5475 5477 5478 5480
5403 5402 5401 5400 5400 5399 5398 5397 5395 5395 5394 5393 5393 5392 5391 5390 5390 5389 5388 5388 5388 5388 5388 5387 5387 5388 5389 5389 5389 5389 5390 5390 5391 5392 5393 5394 5395 5396 5397 5399 5400 5403 5405 5407 5409 5411 5413 5415 5417 5419 5421 5423 5425 5426 5428 5430 5432 5434 5436 5437 5439 5440 5441 5442 5444 5445 5447 5448 5449 5451 5452 5454 5455 5456 5458 5459 5460 5462 5463 5465 5466 5468 5469 5471 5473 5474
5399 5398 5397 5396 5396 5395 5394 5393 5392 5391 5390 5390 5389 5388 5386 5385 5385 5385 5384 5384 5384 5384 5383 5383 5383 5384 5385 5385 5385 5385 5385 5385 5386 5387 5388 5389 5390 5391 5393 5394 5396 5398 5400 5402 5404 5405 5408 5410 5412 5413 5415 5418 5420 5421 5423 5425 5426 5429 5431 5432 5433 5435 5436 5437 5438 5440 5441 5443 5444 5445 5447 5448 5450 5451 5452 5454 5455 5457 5458 5459 5461 5462 5464 5465 5467 5468
5395 5394 5393 5392 5392 5391 5390 5389 5388 5387 5386 5386 5385 5384 5383 5382 5381 5381 5380 5380 5380 5379 5379 5379 5379 5380 5380 5380 5380 5380 5380 5380 5381 5382 5384 5385 5385 5386 5388 5390 5391 5393 5395 5397 5399 5400 5402 5404 5406 5408 5410 5412 5414 5416 5418 5419 5421 5423 5425 5426 5428 5429 5430 5432 5433 5435 5436 5437 5439 5440 5441 5443 5444 5445 5447 5448 5450 5451 5452 5454 5455 5457 5458 5460 5461 5463
5392 5391 5390 5389 5388 5388 5387 5385 5385 5384 5383 5382 5381 5380 5379 5378 5378 5377 5376 5376 5375 5375 5375 5375 5375 5375 5376 5376 5376 5376 5376 5376 5377 5378 5380 5380 5381 5382 5384 5385 5386 5388 5390 5391 5393 5395 5397 5399 5400 5402 5405 5407 5409 5410 5412 5414 5415 5417 5419 5420 5421 5423 5425 5426 5427 5429 5430 5432 5433 5434 5436 5437 5439 5440 5441 5443 5444 5445 5447 5449 5450 5451 5453 5454 5456 5457
5389 5389 5387 5386 5385 5385 5384 5383 5381 5380 5380 5378 5377 5376 5375 5375 5374 5374 5373 5372 5372 5371 5371 5371 5371 5372 5372 5372 5372 5372 5372 5373 5373 5374 5375 5376 5377 5378 5379 5380 5381 5383 5385 5386 5388 5389 5391 5393 5395 5397 5400 5402 5404 5405 5407 5409 5410 5411 5413 5414 5416 5417 5419 5420 5422 5423 5425 5426 5427 5429 5430 5432 5433 5435 5436 5437 5439 5440 5441 5443 5445 5446 5447 5449 5450 5452
5385 5385 5384 5383 5382 5381 5380 5380 5379 5378 5376 5375 5375 5374 5372 5372 5371 5370 5370 5369 5368 5368 5368 5367 5368 5368 5368 5368 5368 5368 5369 5369 5370 5370 5371 5371 5373 5374 5375 5376 5377 5378 5380 5381 5383 5384 5386 5388 5390 5392 5395 5397 5399 5400 5402 5403 5405 5406 5407 5409 5410 5412 5413 5415 5416 5418 5419 5420 5422 5423 5425 5426 5427 5429 5430 5432 5433 5435 5436 5438 5439 5440 5442 5443 5445 5446
5381 5381 5381 5380 5379 5378 5377 5376 5376 5375 5374 5373 5372 5371 5370 5369 5368 5367 5367 5366 5365 5365 5365 5364 5364 5364 5365 5364 5365 5365 5365 5365 5366 5366 5367 5367 5368 5369 5370 5371 5372 5374 5375 5376 5378 5379 5381 5383 5385 5387 5390 5392 5394 5395 5396 5397 5399 5400 5402 5403 5405 5406 5408 5409 5411 5412 5414 5415 5416 5418 5419 5420 5422 5423 5425 5426 5428 5429 5430 5432 5433 5435 5436 5438 5440 5441
5377 5377 5377 5377 5375 5374 5374 5373 5372 5371 5370 5370 5369 5368 5367 5366 5365 5365 5364 5363 5362 5362 5361 5361 5361 5361 5361 5361 5361 5361 5361 5361 5362 5362 5363 5363 5364 5365 5366 5367 5368 5369 5370 5372 5373 5375 5376 5378 5380 5383 5385 5387 5388 5390 5391 5392 5394 5395 5396 5398 5400 5401 5403 5404 5405 5407 5408 5410 5411 5412 5414 5415 5417 5418 5420 5421 5423 5424 5425 5427 5428 5430 5431 5433 5434 5436
5374 5373 5373 5373 5372 5371 5370 5370 5369 5368 5367 5366 5365 5365 5364 5363 5362 5361 5361 5360 5360 5359 5359 5358 5358 5358 5358 5358 5358 5358 5358 5358 5358 5359 5359 5360 5360 5361 5362 5363 5364 5365 5366 5368 5369 5370 5372 5374 5376 5378 5380 5382 5383 5385 5386 5387 5389 5390 5391 5393 5394 5396 5397 5399 5400 5402 5403 5404 5406 5407 5409 5410 5411 5413 5415 5416 5418 5419 5420 5422 5423 5425 5426 5428 5429 5431
5371 5370 5370 5369 5369 5368 5367 5366 5366 5365 5364 5363 5362 5362 5361 5360 5360 5359 5358 5358 5357 5356 5356 5355 5355 5355 5355 5355 5355 5355 5355 5355 5355 5355 5356 5356 5357 5358 5358 5359 5360 5361 5362 5363 5365 5366 5368 5370 5371 5373 5375 5377 5378 5380 5381 5382 5384 5385 5386 5388 5389 5391 5392 5394 5395 5396 5398 5399 5400 5402 5403 5405 5407 5408 5410 5411 5413 5414 5416 5417 5418 5420 5421 5423 5424 5425
5368 5367 5366 5366 5365 5365 5364 5363 5363 5362 5361 5360 5360 5359 5358 5357 5357 5356 5355 5355 5354 5354 5353 5353 5352 5352 5352 5352 5352 5352 5352 5352 5352 5352 5352 5353 5353 5354 5355 5355 5356 5357 5358 5360 5360 5362 5363 5365 5367 5369 5371 5372 5374 5375 5376 5377 5379 5380 5382 5383 5384 5385 5387 5389 5390 5391 5393 5394 5395 5397 5398 5400 5401 5403 5405 5406 5408 5409 5410 5412 5413 5415 5416 5417 5419 5420
5365 5364 5363 5363 5362 5361 5361 5360 5359 5359 5358 5357 5356 5356 5355 5355 5354 5354 5353 5352 5351 5350 5350 5350 5350 5349 5349 5349 5349 5349 5349 5349 5349 5349 5350 5350 5350 5351 5352 5352 5353 5353 5354 5355 5357 5358 5359 5361 5363 5365 5366 5368 5369 5370 5372 5373 5374 5375 5377 5378 5379 5380 5382 5383 5385 5386 5388 5389 5391 5392 5393 5395 5397 5398 5400 5401 5402 5404 5405 5407 5408 5410 5411 5412 5414 5415
5362 5361 5360 5360 5359 5359 5358 5357 5356 5356 5355 5354 5354 5353 5352 5352 5351 5351 5350 5350 5349 5348 5347 5347 5347 5346 5346 5346 5346 5346 5346 5346 5346 5346 5347 5347 5347 5347 5348 5349 5349 5350 5351 5352 5353 5354 5355 5357 5359 5361 5362 5363 5365 5366 5367 5369 5370 5371 5372 5373 5374 5375 5377 5378 5380 5381 5383 5384 5386 5387 5389 5390 5392 5393 5395 5396 5397 5399 5400 5402 5403 5404 5405 5407 5408 5410
5360 5359 5358 5357 5356 5355 5355 5355 5354 5353 5352 5352 5351 5350 5350 5349 5349 5348 5347 5346 5346 5345 5345 5345 5344 5344 5343 5343 5343 5343 5343 5344 5344 5344 5344 5344 5344 5344 5345 5345 5346 5347 5347 5348 5350 5351 5352 5353 5355 5357 5358 5359 5360 5362 5363 5364 5365 5366 5367 5368 5369 5370 5372 5373 5375 5376 5378 5379 5381 5383 5384 5386 5387 5388 5390 5391 5392 5394 5395 5396 5398 5399 5400 5402 5403 5405
5356 5355 5355 5354 5353 5352 5352 5351 5351 5351 5350 5349 5348 5348 5347 5346 5346 5345 5345 5344 5344 5343 5342 5342 5341 5341 5340 5340 5340 5340 5340 5341 5341 5341 5340 5340 5341 5341 5342 5342 5343 5344 5344 5345 5346 5347 5349 5350 5351 5352 5354 5355 5356 5357 5358 5360 5360 5362 5363 5364 5365 5366 5367 5368 5370 5371 5373 5374 5376 5377 5379 5380 5382 5383 5385 5386 5387 5389 5390 5391 5393 5394 5395 5397 5399 5400
5353 5353 5352 5351 5350 5350 5349 5349 5348 5348 5347 5347 5346 5345 5345 5344 5344 5343 5342 5342 5341 5340 5340 5340 5339 5338 5338 5338 5338 5338 5338 5338 5338 5338 5338 5338 5338 5338 5339 5339 5340 5340 5341 5342 5343 5344 5345 5346 5347 5349 5350 5351 5352 5353 5354 5355 5356 5357 5358 5360 5360 5361 5363 5364 5365 5366 5368 5369 5371 5372 5374 5375 5377 5378 5380 5381 5382 5384 5385 5386 5388 5389 5390 5392 5394 5395
5350 5350 5349 5348 5347 5347 5346 5345 5345 5345 5344 5344 5343 5343 5343 5342 5341 5341 5340 5340 5339 5338 5337 5337 5336 5336 5335 5335 5335 5335 5335 5335 5335 5335 5335 5335 5335 5335 5336 5336 5337 5338 5339 5339 5340 5340 5342 5343 5344 5345 5345 5347 5348 5349 5350 5351 5352 5353 5354 5355 5356 5357 5359 5360 5361 5362 5363 5365 5366 5367 5369 5370 5371 5373 5375 5376 5377 5379 5380 5381 5383 5384 5385 5387 5389 5391
5347 5347 5346 5345 5345 5344 5343 5342 5342 5341 5341 5340 5340 5340 5339 5339 5338 5338 5337 5337 5337 5336 5335 5335 5334 5333 5333 5332 5332 5332 5332 5332 5332 5332 5332 5332 5332 5332 5333 5333 5334 5335 5335 5336 5336 5337 5339 5340 5340 5341 5342 5343 5344 5345 5345 5347 5348 5349 5350 5351 5352 5353 5354 5355 5356 5357 5359 5360 5361 5362 5364 5365 5367 5368 5370 5371 5372 5374 5375 5376 5378 5379 5380 5382 5384 5386
5345 5344 5343 5342 5342 5341 5340 5340 5339 5338 5338 5337 5336 5336 5335 5335 5335 5335 5334 5334 5334 5334 5333 5332 5331 5330 5330 5330 5330 5329 5329 5329 5329 5329 5329 5329 5329 5330 5330 5330 5330 5331 5332 5333 5333 5334 5335 5336 5337 5338 5339 5339 5340 5340 5341 5343 5344 5345 5346 5347 5348 5349 5350 5351 5352 5353 5354 5355 5357 5358 5359 5360 5362 5363 5365 5366 5367 5369 5370 5371 5373 5374 5375 5377 5379 5381
5342 5341 5340 5340 5339 5338 5338 5337 5336 5335 5335 5334 5334 5333 5332 5332 5331 5331 5331 5331 5331 5331 5330 5330 5329 5328 5327 5327 5327 5326 5326 5326 5326 5326 5326 5326 5326 5326 5327 5327 5328 5328 5329 5329 5330 5331 5332 5332 5333 5334 5335 5335 5336 5337 5338 5339 5340 5341 5342 5343 5344 5345 5346 5347 5348 5349 5350 5351 5352 5353 5355 5356 5357 5359 5360 5361 5362 5364 5365 5366 5368 5369 5370 5372 5374 5375
5339 5339 5338 5337 5336 5335 5335 5334 5333 5333 5332 5331 5330 5330 5329 5329 5328 5328 5328 5328 5327 5327 5327 5327 5326 5325 5325 5325 5324 5324 5324 5323 5323 5323 5323 5324 5324 5324 5324 5324 5325 5325 5325 5326 5327 5327 5328 5329 5330 5330 5331 5332 5333 5333 5334 5335 5335 5336 5338 5339 5340 5341 5342 5343 5344 5345 5345 5347 5348 5349 5350 5351 5352 5354 5355 5356 5358 5359 5360 5361 5363 5364 5365 5367 5369 5370
5336 5336 5335 5334 5333 5332 5331 5331 5330 5330 5329 5328 5328 5327 5326 5325 5325 5325 5325 5324 5324 5324 5324 5324 5323 5323 5322 5322 5321 5321 5321 5320 5320 5320 5320 5320 5321 5321 5321 5321 5322 5322 5322 5322 5323 5324 5324 5325 5326 5326 5327 5328 5329 5330 5330 5330 5331 5332 5333 5335 5335 5336 5337 5338 5339 5340 5341 5342 5343 5345 5345 5347 5348 5349 5350 5351 5353 5354 5355 5356 5358 5359 5360 5362 5364 5365
5333 5333 5332 5331 5330 5329 5328 5327 5327 5326 5326 5325 5325 5324 5323 5323 5322 5322 5321 5321 5321 5321 5320 5320 5320 5320 5319 5319 5319 5319 5318 5318 5318 5317 5317 5317 5318 5318 5318 5318 5319 5319 5319 5319 5320 5320 5321 5321 5322 5323 5324 5324 5325 5325 5326 5327 5328 5328 5329 5330 5331 5332 5333 5334 5335 5335 5336 5338 5339 5340 5341 5342 5343 5344 5345 5346 5348 5349 5350 5352 5353 5355 5356 5357 5359 5360
5330 5329 5329 5328 5327 5326 5325 5324 5324 5323 5322 5322 5321 5321 5320 5320 5319 5319 5318 5318 5318 5318 5318 5317 5317 5317 5317 5316 5316 5315 5315 5315 5315 5315 5315 5315 5315 5315 5315 5315 5315 5316 5316 5316 5316 5317 5317 5318 5319 5319 5320 5320 5321 5322 5322 5323 5323 5324 5325 5326 5327 5327 5328 5329 5330 5331 5332 5333 5334 5335 5336 5337 5338 5339 5340 5342 5343 5344 5345 5347 5348 5350 5351 5352 5354 5355
5326 5325 5325 5325 5324 5323 5323 5322 5321 5320 5320 5319 5318 5317 5317 5316 5316 5316 5315 5315 5315 5315 5315 5315 5314 5314 5314 5314 5313 5313 5313 5312 5312 5312 5312 5312 5312 5312 5312 5312 5312 5313 5313 5313 5314 5314 5314 5315 5315 5316 5316 5317 5317 5318 5318 5319 5320 5320 5321 5322 5322 5323 5324 5325 5326 5327 5328 5329 5330 5330 5331 5332 5333 5335 5336 5337 5338 5340 5341 5342 5344 5345 5346 5347 5349 5350
5322 5322 5321 5321 5321 5320 5320 5319 5319 5318 5317 5316 5315 5315 5314 5313 5313 5312 5312 5312 5311 5311 5311 5311 5311 5311 5311 5311 5310 5310 5310 5310 5310 5309 5309 5309 5309 5309 5309 5309 5309 5310 5310 5310 5310 5311 5311 5311 5312 5312 5313 5313 5314 5314 5315 5315 5316 5316 5317 5317 5318 5319 5320 5320 5321 5322 5323 5324 5325 5326 5327 5328 5329 5330 5331 5332 5334 5335 5336 5337 5339 5340 5341 5343 5344 5346
5318 5318 5318 5317 5317 5317 5317 5316 5315 5315 5314 5313 5312 5312 5311 5310 5310 5309 5309 5309 5308 5308 5308 5308 5308 5308 5308 5308 5308 5307 5307 5307 5306 5306 5306 5306 5306 5306 5306 5306 5306 5306 5306 5307 5307 5307 5308 5308 5309 5309 5310 5310 5310 5311 5311 5311 5312 5313 5313 5313 5314 5315 5315 5316 5317 5317 5318 5319 5320 5321 5322 5323 5324 5325 5326 5327 5329 5330 5331 5332 5334 5335 5336 5338 5339 5341
5314 5314 5314 5314 5314 5313 5313 5313 5312 5312 5311 5310 5310 5309 5308 5308 5307 5306 5306 5305 5305 5305 5305 5305 5305 5305 5305 5305 5305 5305 5304 5304 5303 5303 5303 5303 5303 5303 5303 5302 5302 5303 5303 5303 5304 5304 5304 5305 5305 5305 5306 5306 5307 5307 5308 5308 5309 5309 5309 5310 5310 5311 5311 5312 5312 5313 5314 5315 5315 5316 5317 5318 5319 5320 5321 5323 5324 5325 5326 5328 5329 5330 5331 5333 5334 5336
5311 5310 5310 5310 5310 5310 5309 5309 5309 5308 5308 5307 5307 5306 5305 5305 5304 5303 5303 5302 5302 5302 5302 5302 5302 5302 5302 5302 5302 5302 5301 5300 5300 5300 5299 5299 5299 5299 5299 5299 5299 5299 5299 5300 5300 5300 5300 5301 5301 5301 5302 5303 5303 5303 5304 5304 5305 5305 5306 5306 5306 5307 5307 5308 5309 5309 5310 5310 5311 5312 5313 5313 5314 5315 5316 5318 5319 5320 5321 5323 5324 5325 5326 5328 5329 5331
5307 5307 5307 5306 5306 5306 5306 5305 5305 5305 5305 5304 5304 5303 5302 5301 5301 5300 5300 5299 5299 5298 5298 5298 5298 5298 5298 5298 5298 5298 5298 5297 5296 5296 5295 5295 5295 5295 5295 5295 5295 5295 5295 5296 5296 5296 5296 5297 5297 5298 5298 5299 5299 5299 5300 5300 5301 5301 5302 5302 5303 5303 5303 5304 5305 5305 5306 5306 5307 5307 5308 5309 5310 5310 5311 5313 5314 5315 5317 5318 5319 5320 5322 5323 5325 5326
5304 5304 5303 5303 5302 5302 5302 5302 5301 5301 5301 5300 5300 5300 5299 5298 5298 5297 5296 5296 5295 5295 5295 5295 5295 5294 5294 5294 5294 5294 5294 5294 5293 5292 5292 5291 5291 5291 5291 5291 5291 5291 5291 5292 5292 5292 5293 5293 5293 5294 5294 5295 5295 5295 5296 5296 5297 5297 5298 5298 5299 5299 5300 5300 5301 5301 5302 5302 5303 5303 5304 5304 5305 5305 5307 5308 5309 5310 5312 5313 5314 5315 5317 5318 5320 5321
5300 5300 5300 5299 5299 5298 5298 5298 5298 5298 5297 5297 5296 5296 5295 5295 5295 5294 5293 5293 5292 5292 5291 5291 5291 5291 5290 5290 5290 5290 5290 5290 5289 5289 5288 5287 5287 5287 5286 5286 5287 5287 5287 5287 5288 5288 5289 5289 5289 5290 5290 5290 5291 5291 5292 5292 5292 5293 5293 5294 5294 5295 5295 5296 5296 5297 5297 5298 5299 5299 5299 5300 5300 5301 5302 5304 5305 5306 5307 5308 5310 5311 5312 5313 5315 5316
5296 5296 5296 5295 5295 5295 5295 5295 5294 5294 5294 5293 5293 5293 5292 5292 5291 5290 5290 5290 5289 5288 5288 5288 5287 5287 5287 5286 5286 5286 5285 5285 5285 5285 5284 5284 5283 5282 5282 5282 5282 5282 5282 5283 5283 5283 5284 5284 5285 5285 5286 5286 5287 5287 5288 5288 5288 5288 5288 5289 5290 5290 5290 5291 5292 5292 5293 5294 5294 5294 5295 5295 5296 5297 5298 5299 5300 5301 5302 5304 5305 5306 5307 5308 5310 5311
5292 5292 5292 5292 5291 5291 5291 5291 5290 5290 5290 5290 5289 5289 5289 5288 5288 5287 5286 5286 5285 5285 5284 5284 5284 5283 5283 5283 5282 5281 5281 5280 5280 5280 5280 5280 5279 5278 5278 5277 5277 5278 5278 5278 5278 5279 5279 5280 5280 5281 5281 5282 5282 5283 5283 5284 5284 5284 5284 5284 5285 5285 5286 5287 5287 5288 5288 5289 5289 5290 5290 5291 5291 5292 5293 5294 5295 5296 5298 5299 5300 5301 5302 5303 5305 5306
5288 5288 5288 5288 5287 5287 5287 5287 5287 5286 5286 5286 5285 5285 5285 5285 5284 5284 5283 5282 5282 5281 5281 5280 5280 5279 5279 5279 5278 5277 5277 5276 5276 5275 5275 5275 5275 5274 5273 5273 5273 5273 5273 5274 5274 5275 5275 5275 5276 5276 5277 5278 5278 5278 5279 5279 5279 5279 5279 5280 5280 5281 5281 5282 5283 5283 5284 5284 5285 5285 5285 5286 5287 5288 5289 5290 5290 5291 5293 5294 5295 5296 5297 5298 5299 5300
5284 5284 5284 5284 5284 5283 5283 5283 5283 5283 5282 5282 5282 5281 5281 5281 5281 5280 5280 5279 5278 5278 5277 5276 5276 5275 5275 5274 5274 5273 5272 5272 5271 5271 5270 5270 5270 5270 5269 5269 5269 5269 5269 5269 5270 5270 5271 5271 5272 5272 5273 5273 5274 5274 5274 5274 5274 5275 5275 5275 5276 5277 5277 5278 5278 5279 5279 5280 5280 5280 5281 5282 5283 5283 5284 5285 5285 5287 5288 5289 5290 5291 5292 5293 5294 5295
5280 5280 5280 5280 5280 5280 5279 5279 5279 5279 5279 5279 5278 5278 5278 5277 5277 5277 5276 5276 5275 5274 5273 5273 5272 5271 5271 5270 5270 5269 5268 5267 5267 5266 5266 5266 5265 5265 5265 5264 5264 5264 5264 5264 5265 5265 5266 5267 5268 5268 5269 5269 5269 5269 5269 5269 5270 5270 5270 5271 5272 5272 5273 5273 5274 5274 5275 5275 5275 5276 5277 5277 5278 5279 5279 5280 5280 5282 5283 5284 5285 5286 5287 5287 5288 5289